[[{"header":{"parameterUnit":"m.s-1","parameterCategory":1,"la1":30.2991,"la2":30.254,"lo1":-89.0895,"lo2":-89.0444,"dy":0.0017,"dx":0.0017,"nx":28,"ny":28,"refTime":"2024-02-14T09:00:00:Z","depth":0,"parameterNumber":2,"parameterNumberName":"U-component_of_WINDS"},"data":[0,0,0,0,0,0,0,0,0,0,0,0,0,0,0,0,0,0,0,0,0,0,0,0,0,0,0,0,0,0,0,0,0,0,0,0,0,0,0,0,0,0,0,0,0,0,0,0,0,0,0,0,0,0,0,0,0,0,-2.3988,-2.3988,0,-2.3939,-2.3938,-2.3938,-2.3834,-2.3832,-2.383,-2.3828,-2.3779,-2.378,-2.3781,0,0,0,0,0,0,0,0,0,0,0,0,0,-2.3997,-2.3997,-2.3988,-2.3988,-2.3987,-2.3939,-2.3938,-2.3937,-2.3834,-2.3832,-2.3829,-2.3827,-2.3779,-2.378,-2.3781,0,0,0,0,0,0,0,0,0,0,0,0,0,-2.3975,-2.3997,-2.3988,-2.393,-2.3924,-2.3939,-2.3938,-2.3937,-2.3835,-2.3831,-2.3828,-2.3825,-2.3779,-2.378,-2.3781,-2.385,0,0,-2.3784,-2.3784,0,0,0,0,0,0,0,0,-2.3976,-2.3975,-2.3939,-2.3934,-2.3927,-2.3889,-2.3923,-2.3908,-2.3835,-2.3869,-2.3828,-2.3824,-2.3819,-2.3816,-2.3814,-2.3848,-2.3845,-2.3784,-2.3785,-2.3785,-2.3785,0,0,0,0,0,0,0,-2.3978,-2.3976,-2.3969,-2.3938,-2.3931,-2.3907,-2.39,-2.392,-2.3862,-2.3865,-2.3858,-2.3853,-2.3815,-2.3813,-2.3812,-2.3845,-2.3784,-2.3785,-2.3785,-2.3786,-2.3935,-2.3938,0,0,0,0,0,0,-2.3988,-2.3978,-2.397,-2.3967,-2.3944,-2.3909,-2.3902,-2.3905,-2.3861,-2.3852,-2.3856,-2.3849,-2.3813,-2.3811,-2.381,-2.3889,-2.3785,-2.3786,-2.3786,-2.3932,-2.3936,-2.394,0,0,0,0,0,0,-2.3988,-2.3988,-2.3972,-2.3971,-2.3967,-2.3912,-2.3916,-2.3905,-2.3903,-2.3854,-2.3844,-2.3865,-2.381,-2.3808,-2.3841,-2.3886,-2.3786,-2.3787,-2.3928,-2.3933,-2.3938,-2.4047,0,0,0,0,0,0,-2.3989,-2.3989,-2.4013,-2.3972,-2.3967,-2.4003,-2.3919,-2.3907,-2.3905,-2.3895,-2.3859,-2.3851,-2.3808,-2.384,-2.3842,-2.3885,-2.3788,-2.3924,-2.393,-2.3936,-2.404,-2.4056,-2.4069,0,0,0,0,0,-2.399,-2.4046,-2.4015,-2.4015,-2.3997,-2.4006,-2.4004,-2.3952,-2.3909,-2.3934,-2.3903,-2.3852,-2.3881,-2.3844,-2.3846,-2.389,-2.3921,-2.3928,-2.3936,-2.4033,-2.4052,-2.4069,0,0,0,0,0,0,-2.4094,-2.404,-2.4004,-2.4049,-2.4033,-2.3989,-2.4018,-2.3974,-2.3971,-2.3961,-2.3899,-2.3892,-2.3934,-2.3915,-2.3875,-2.3956,-2.3893,-2.3901,-2.3966,-2.3984,-2.3999,-2.4002,-2.3789,0,0,0,0,0,-2.4123,-2.4134,-2.4086,-2.413,-2.4124,-2.4073,-2.4075,-2.4037,-2.4018,-2.4011,-2.3982,-2.3967,-2.3972,-2.3977,-2.398,-2.4037,-2.4028,-2.4068,-2.4083,-2.4096,-2.4103,-2.4134,-2.4152,-2.3965,-2.3965,-2.3964,0,0,-2.4181,-2.4153,-2.4163,-2.415,-2.4133,-2.4148,-2.4068,-2.4086,-2.4096,-2.4014,-2.4043,-2.4022,-2.4,-2.4046,-2.4065,-2.4032,-2.4153,-2.4105,-2.4116,-2.4116,-2.4144,-2.4161,-2.4177,-2.397,-2.3969,-2.3968,0,0,-2.4295,-2.4274,-2.4309,-2.4294,-2.427,-2.4236,-2.4245,-2.4208,-2.419,-2.4218,-2.4158,-2.417,-2.4181,-2.4168,-2.4164,-2.4277,-2.423,-2.4279,-2.4357,-2.4388,-2.4402,-2.4415,-2.4456,-2.4472,-2.4287,-2.4287,-2.4288,0,-2.4371,-2.4389,-2.4333,-2.4355,-2.4352,-2.4279,-2.4315,-2.4304,-2.4282,-2.4282,-2.4246,-2.4259,-2.4239,-2.4282,-2.431,-2.4308,-2.4317,-2.4282,-2.4404,-2.4417,-2.4428,-2.4467,-2.4482,-2.4294,-2.4293,-2.4292,-2.4292,0,-2.4484,-2.4498,-2.4529,-2.451,-2.4511,-2.454,-2.449,-2.4498,-2.4461,-2.4432,-2.4463,-2.4437,-2.4434,-2.4441,-2.4405,-2.448,-2.4461,-2.4416,-2.4351,-2.4453,-2.4488,-2.4502,-2.4303,-2.43,-2.4298,-2.4297,0,0,-2.466,-2.4612,-2.4624,-2.4615,-2.4584,-2.4594,-2.4622,-2.4618,-2.4627,-2.4615,-2.4637,-2.4649,-2.4608,-2.4603,-2.4565,-2.4592,-2.4685,-2.4544,-2.4542,-2.4571,-2.4767,-2.4802,-2.482,-2.4654,-2.4657,-2.4659,-2.4769,0,-2.4767,-2.4809,-2.4762,-2.4815,-2.4828,-2.476,-2.4784,-2.4768,-2.4743,-2.4751,-2.4723,-2.4733,-2.4677,-2.4674,-2.4697,-2.4669,-2.4724,-2.466,-2.4675,-2.4677,-2.4683,-2.4838,-2.4873,-2.4979,-2.4783,-2.4785,-2.4787,0,-2.4897,-2.4891,-2.4946,-2.4913,-2.4917,-2.4939,-2.4934,-2.4942,-2.4924,-2.4904,-2.49,-2.4855,-2.4881,-2.4819,-2.4855,-2.4813,-2.4817,-2.4804,-2.4807,-2.4806,-2.4738,-2.4842,-2.5011,-2.5027,-2.4808,-2.4806,-2.4805,0,-2.5021,-2.5028,-2.5061,-2.5056,-2.5019,-2.5036,-2.5022,-2.5001,-2.5003,-2.4998,-2.4999,-2.4998,-2.4998,-2.4999,-2.4956,-2.4914,-2.4999,-2.4932,-2.4983,-2.4985,-2.5003,-2.5003,-2.5176,-2.5006,-2.5006,-2.5006,-2.5005,0,-2.5145,-2.5181,-2.5117,-2.5138,-2.5177,-2.5123,-2.5164,-2.5143,-2.5125,-2.5142,-2.5083,-2.5101,-2.5043,-2.5054,-2.5021,-2.5057,-2.5057,-2.5043,-2.5033,-2.5048,-2.505,-2.5049,-2.5041,-2.501,-2.5009,-2.5008,-2.5007,0,-2.529,-2.5248,-2.5281,-2.5243,-2.5235,-2.5266,-2.5235,-2.5253,-2.5225,-2.5247,-2.5249,-2.5204,-2.5215,-2.5173,-2.5177,-2.5154,-2.5208,-2.5187,-2.5214,-2.5208,-2.5261,-2.5257,-2.5441,-2.5462,-2.5279,-2.528,-2.5282,0,-2.5372,-2.5398,-2.5364,-2.5371,-2.536,-2.5372,-2.5373,-2.5322,-2.5327,-2.531,-2.5331,-2.5338,-2.534,-2.5361,-2.533,-2.5333,-2.5311,-2.5376,-2.5311,-2.5326,-2.5313,-2.5312,-2.5315,-2.5389,-2.5391,-2.5393,-2.5394,0,-2.5522,-2.55,-2.5505,-2.5503,-2.5507,-2.5503,-2.5496,-2.5505,-2.545,-2.5459,-2.5469,-2.5471,-2.5476,-2.5483,-2.548,-2.5467,-2.5423,-2.5415,-2.5427,-2.5442,-2.5457,-2.5451,-2.5251,-2.5411,-2.5409,-2.5408,-2.5407,-2.5406,-2.5638,-2.5659,-2.5639,-2.5646,-2.5636,-2.563,-2.5647,-2.5621,-2.5628,-2.5628,-2.5597,-2.5615,-2.5599,-2.559,-2.5582,-2.5595,-2.5565,-2.5583,-2.5587,-2.5592,-2.5602,-2.5456,-2.5595,-2.5594,-2.5594,-2.5593,-2.5593,0,-2.5785,-2.577,-2.5777,-2.5769,-2.5776,-2.5733,-2.5723,-2.5732,-2.5748,-2.5736,-2.574,-2.5754,-2.5761,-2.5732,-2.5736,-2.5753,-2.5733,-2.5755,-2.5754,-2.5752,-2.5628,-2.5617,-2.5772,-2.5772,-2.5772,-2.5772,-2.5772,-2.5772,-2.5863,-2.5896,-2.5873,-2.5902,-2.5886,-2.5902,-2.5901,-2.5896,-2.5887,-2.5905,-2.5911,-2.5891,-2.5873,-2.5876,-2.5882,-2.5873,-2.5878,-2.5908,-2.5893,-2.5778,-2.576,-2.5743,-2.5733,-2.5909,-2.591,-2.6015,-2.6016,-2.6017]},{"header":{"parameterUnit":"m.s-1","parameterCategory":1,"la1":30.2991,"la2":30.254,"lo1":-89.0895,"lo2":-89.0444,"dy":0.0017,"dx":0.0017,"nx":28,"ny":28,"refTime":"2024-02-14T09:00:00:Z","depth":0,"parameterNumber":3,"parameterNumberName":"V-component_of_WINDS"},"data":[0,0,0,0,0,0,0,0,0,0,0,0,0,0,0,0,0,0,0,0,0,0,0,0,0,0,0,0,0,0,0,0,0,0,0,0,0,0,0,0,0,0,0,0,0,0,0,0,0,0,0,0,0,0,0,0,0,0,1.65,1.6499,0,1.6481,1.648,1.648,1.6516,1.6517,1.6518,1.6519,1.6493,1.6491,1.6489,0,0,0,0,0,0,0,0,0,0,0,0,0,1.6562,1.656,1.65,1.6499,1.6499,1.6481,1.648,1.648,1.6515,1.6517,1.6518,1.652,1.6493,1.6491,1.6489,0,0,0,0,0,0,0,0,0,0,0,0,0,1.6538,1.656,1.65,1.6515,1.6516,1.6481,1.648,1.648,1.6515,1.6517,1.6519,1.652,1.6494,1.6491,1.6489,1.6436,0,0,1.648,1.6479,0,0,0,0,0,0,0,0,1.6539,1.6535,1.6513,1.6514,1.6515,1.6502,1.6493,1.6465,1.6515,1.6515,1.6519,1.6521,1.6494,1.6491,1.6484,1.6435,1.6433,1.648,1.6478,1.6477,1.6477,0,0,0,0,0,0,0,1.6541,1.6536,1.6492,1.6512,1.6514,1.6521,1.6519,1.6487,1.6494,1.6515,1.6518,1.6515,1.6495,1.6486,1.6483,1.6433,1.648,1.6478,1.6476,1.6475,1.6339,1.6337,0,0,0,0,0,0,1.6541,1.6538,1.6493,1.6491,1.6532,1.6518,1.6517,1.6504,1.6495,1.6495,1.6514,1.6517,1.649,1.6486,1.6482,1.6419,1.6477,1.6475,1.6473,1.6341,1.6339,1.6337,0,0,0,0,0,0,1.6542,1.6537,1.6493,1.6515,1.651,1.6515,1.6501,1.6503,1.6495,1.6494,1.6495,1.6504,1.6491,1.6486,1.6448,1.6419,1.6474,1.6471,1.6343,1.634,1.6338,1.6293,0,0,0,0,0,0,1.6544,1.6537,1.6518,1.6515,1.6509,1.646,1.65,1.6501,1.6491,1.6495,1.6485,1.6485,1.6492,1.6451,1.6445,1.6416,1.6469,1.6346,1.6342,1.6339,1.6297,1.6288,1.6281,0,0,0,0,0,1.6546,1.6505,1.6517,1.6511,1.6486,1.6458,1.6455,1.6466,1.6488,1.6468,1.6468,1.6485,1.6424,1.6447,1.644,1.641,1.6348,1.6343,1.6339,1.63,1.629,1.6282,0,0,0,0,0,0,1.6502,1.6504,1.6518,1.6475,1.6466,1.6464,1.6439,1.6455,1.6438,1.6443,1.6455,1.6453,1.6411,1.6407,1.6433,1.6358,1.6389,1.6383,1.6362,1.6353,1.6345,1.6346,1.6467,0,0,0,0,0,1.6488,1.6467,1.647,1.6431,1.6427,1.6434,1.6422,1.6432,1.6423,1.6419,1.6416,1.6405,1.6383,1.6368,1.6348,1.6297,1.6295,1.6273,1.6265,1.6259,1.6253,1.6225,1.6215,1.6322,1.6322,1.6322,0,0,1.6457,1.6456,1.6442,1.6422,1.6417,1.6394,1.643,1.6404,1.6386,1.6414,1.6378,1.6375,1.6364,1.6319,1.6298,1.6314,1.6223,1.6254,1.6249,1.6246,1.6219,1.6209,1.62,1.6319,1.632,1.632,0,0,1.6389,1.6387,1.6354,1.6349,1.6341,1.6347,1.6339,1.6335,1.6335,1.63,1.632,1.6298,1.6261,1.6252,1.6242,1.6172,1.6187,1.6165,1.6125,1.6097,1.6089,1.6081,1.6055,1.6046,1.616,1.616,1.6159,0,1.635,1.6318,1.6335,1.6308,1.6298,1.6325,1.6291,1.6285,1.627,1.6262,1.628,1.6234,1.6228,1.6181,1.6164,1.6156,1.6146,1.6165,1.6089,1.6082,1.6075,1.605,1.604,1.6157,1.6157,1.6157,1.6158,0,1.6271,1.6248,1.6223,1.621,1.6198,1.6168,1.6178,1.6164,1.6175,1.6178,1.6141,1.6135,1.6114,1.6104,1.6114,1.6058,1.6068,1.6088,1.6118,1.6062,1.6038,1.6029,1.6153,1.6154,1.6155,1.6155,0,0,1.6171,1.6171,1.6161,1.6156,1.6151,1.6132,1.6103,1.6085,1.6071,1.6061,1.6035,1.6004,1.6022,1.6011,1.6021,1.5997,1.5941,1.602,1.6019,1.6003,1.5878,1.5861,1.585,1.5952,1.595,1.5949,1.5878,0,1.6103,1.6054,1.6069,1.6019,1.5997,1.6024,1.5998,1.5991,1.5994,1.5974,1.5977,1.5954,1.5981,1.5974,1.5952,1.5952,1.5915,1.5958,1.5926,1.5924,1.5925,1.5838,1.5821,1.5754,1.5869,1.5868,1.5866,0,1.6015,1.6004,1.5952,1.5951,1.5943,1.592,1.5904,1.5887,1.5879,1.5882,1.5871,1.5886,1.5855,1.5889,1.5846,1.5874,1.5862,1.586,1.5858,1.5853,1.589,1.5829,1.5733,1.5722,1.5852,1.5854,1.5855,0,1.5946,1.5918,1.5883,1.5878,1.5876,1.5859,1.5857,1.5852,1.584,1.5827,1.5819,1.5802,1.5791,1.5776,1.5785,1.5809,1.574,1.5774,1.574,1.5739,1.5722,1.5722,1.562,1.5718,1.5718,1.5718,1.5718,0,1.5866,1.5833,1.5852,1.583,1.5794,1.5811,1.5774,1.5775,1.577,1.5748,1.577,1.5749,1.5763,1.5742,1.5748,1.5711,1.5706,1.5707,1.5708,1.5703,1.5703,1.5694,1.5698,1.5716,1.5716,1.5717,1.5717,0,1.5781,1.5793,1.5757,1.5759,1.5759,1.5732,1.5733,1.5712,1.5718,1.5689,1.5684,1.5691,1.5668,1.5676,1.565,1.5655,1.5607,1.5615,1.5609,1.5611,1.5575,1.5578,1.5462,1.5447,1.5556,1.5555,1.5554,0,1.5728,1.5704,1.5704,1.5692,1.569,1.567,1.5659,1.5675,1.5662,1.5653,1.5633,1.5612,1.5596,1.5557,1.5559,1.5539,1.5546,1.5507,1.5543,1.5539,1.5543,1.5544,1.5541,1.5499,1.5498,1.5497,1.5496,0,1.5632,1.564,1.5625,1.5611,1.5598,1.5588,1.5579,1.5568,1.5584,1.5568,1.5546,1.5534,1.5509,1.5487,1.547,1.5466,1.5482,1.5485,1.5476,1.5469,1.5466,1.5466,1.5588,1.5487,1.5488,1.5488,1.5489,1.5489,1.556,1.554,1.5538,1.552,1.5516,1.5508,1.5488,1.5493,1.5475,1.5457,1.5468,1.5442,1.5435,1.5414,1.5408,1.5386,1.5401,1.5388,1.5384,1.538,1.5375,1.5472,1.5383,1.5384,1.5384,1.5384,1.5384,0,1.5464,1.5465,1.5449,1.5437,1.5423,1.5444,1.5435,1.5421,1.5398,1.5392,1.5377,1.5351,1.533,1.5332,1.5312,1.5295,1.5302,1.5289,1.5289,1.5287,1.5363,1.5373,1.5283,1.5283,1.5283,1.5283,1.5283,1.5283,1.5413,1.5379,1.5386,1.5351,1.5351,1.5327,1.532,1.5313,1.5308,1.5279,1.5263,1.5265,1.5261,1.5242,1.5223,1.5224,1.5215,1.5199,1.5202,1.5272,1.5282,1.5291,1.53,1.5197,1.5197,1.5128,1.5127,1.5127]}]]